Wind_Speed
14 14 9 5 0 3 5 4 4 8 5 3 5 6 8 7 3 8 10 10 15 15 16 19 18 18 17 17 17 19 20 21 20 20 18 15 13 10 9 9 9 9 9 8 9 8 8 9 9
12 7 4 1 3 6 4 2 9 4 8 12 10 6 5 5 5 12 11 13 16 16 15 12 15 17 17 18 19 19 18 18 19 19 16 12 10 9 7 8 7 7 7 7 7 7 8 9 9
9 1 2 2 2 6 4 5 11 13 7 4 5 8 4 5 10 14 13 16 15 14 14 13 15 15 17 17 18 17 17 17 17 16 12 10 10 9 7 6 6 5 6 6 5 6 8 8 8
4 2 1 3 7 5 4 11 14 12 7 6 11 10 6 9 8 10 18 17 17 15 15 15 16 16 16 16 17 17 19 17 15 14 13 11 9 7 6 5 4 4 4 4 5 7 8 8 8
2 1 2 4 5 5 8 12 9 6 6 8 4 6 9 4 12 22 19 18 18 17 15 15 17 16 16 16 17 18 18 14 14 13 11 8 7 5 5 3 3 3 4 4 6 7 7 8 7
2 1 2 4 4 5 7 13 6 3 7 10 12 11 7 10 19 19 19 18 17 17 16 15 16 16 16 16 17 18 17 13 14 11 9 7 5 4 3 2 2 3 3 5 6 8 8 7 7
1 1 3 4 4 5 6 11 5 7 8 6 12 8 6 13 18 18 18 17 16 16 15 14 14 15 17 16 15 16 14 13 11 10 8 7 6 4 2 0 2 3 4 5 7 7 7 6 5
1 1 6 3 6 4 9 8 7 8 4 12 11 6 9 18 20 18 17 16 15 15 14 14 14 14 15 14 14 14 13 11 10 8 7 7 5 3 2 3 5 5 5 6 7 5 5 6 4
4 2 5 7 9 6 12 8 6 5 12 5 6 7 13 24 22 19 18 16 15 14 14 14 15 15 15 14 12 11 10 10 10 8 8 6 5 4 4 4 7 7 6 5 6 4 4 4 3
5 2 6 6 8 10 15 11 11 5 12 5 5 11 25 25 23 22 21 19 18 17 16 16 16 15 14 12 11 10 10 9 9 9 8 7 7 6 6 7 6 7 2 3 3 2 4 4 3
4 4 4 3 8 13 17 12 9 7 13 10 12 18 24 25 23 22 21 20 20 18 16 16 15 15 14 12 11 11 10 9 9 9 9 8 8 8 6 5 4 3 4 2 2 1 2 3 4
7 6 5 6 10 16 17 15 10 12 5 10 14 23 24 18 21 21 20 19 18 17 17 15 16 15 15 13 13 12 11 11 10 10 11 11 9 9 8 5 5 4 3 3 2 3 5 3 6
6 6 7 7 14 13 16 15 10 12 3 11 19 23 22 19 22 20 20 19 19 20 19 18 17 17 16 16 13 13 13 13 13 12 13 12 12 10 8 9 6 7 6 4 6 7 6 6 7
2 1 3 9 13 12 16 9 9 9 10 15 21 23 20 19 22 19 18 19 20 20 21 20 19 18 17 17 18 14 13 14 14 14 13 15 15 13 11 11 10 7 8 5 6 6 6 6 6
8 6 8 10 13 7 15 8 13 11 14 16 19 20 19 19 21 21 22 22 22 22 20 21 20 19 20 19 18 18 15 15 14 14 15 15 16 13 11 12 9 8 6 6 6 6 4 5 5
4 5 6 8 13 9 15 13 12 16 17 18 20 18 18 18 23 22 22 22 20 20 21 21 19 19 20 19 17 17 15 16 16 17 16 18 17 13 13 11 10 9 8 6 4 3 4 4 4
4 8 10 10 11 9 13 6 12 18 17 18 19 19 17 17 21 24 23 23 22 23 20 21 20 19 20 20 18 16 17 15 13 13 13 9 11 11 10 10 11 9 7 6 3 2 3 6 7
12 7 9 9 13 10 14 6 9 15 18 18 18 18 18 19 21 24 25 24 23 22 22 21 21 20 20 17 17 14 15 16 14 15 15 13 12 12 11 9 8 7 5 2 2 3 4 5 6
14 14 16 8 10 11 12 12 6 14 16 17 17 18 19 20 23 24 25 24 23 22 22 23 23 25 20 17 15 15 14 15 15 15 14 15 13 11 9 8 6 6 5 3 3 3 4 4 4
14 17 14 8 11 12 10 13 8 15 20 19 19 19 19 19 18 23 25 25 26 26 27 24 25 26 25 19 16 13 12 12 12 10 12 12 12 12 9 8 7 6 4 4 3 3 3 3 3
13 18 15 13 10 4 8 14 12 13 17 18 19 19 19 20 20 20 25 27 27 27 27 27 28 28 26 22 16 13 12 11 8 10 9 12 11 11 10 8 6 6 5 4 3 2 2 2 1
17 13 16 14 13 13 12 12 12 17 18 21 21 21 21 21 19 19 23 28 29 29 28 28 30 30 27 26 20 19 17 15 12 9 10 10 12 12 11 9 7 6 5 4 2 2 2 2 2
10 11 16 17 18 7 10 7 11 10 17 23 25 25 24 23 22 22 24 28 30 30 27 27 30 30 28 27 25 21 19 16 11 9 10 11 14 14 12 10 7 9 6 7 5 3 3 2 2
10 11 6 5 9 9 16 14 11 9 16 24 23 25 25 24 23 23 28 27 28 27 27 27 30 36 33 30 28 25 22 19 14 12 11 11 13 15 15 14 12 11 10 9 5 6 5 5 4
12 13 7 9 7 9 9 12 16 11 19 22 20 26 27 24 22 22 22 26 29 30 30 29 31 33 31 29 28 28 25 22 20 17 14 14 15 15 17 17 15 13 12 9 9 8 7 6 6
19 21 10 16 12 12 5 11 8 20 21 14 15 14 20 24 22 23 22 28 29 30 31 31 31 30 30 30 30 31 28 23 22 21 17 17 18 17 17 16 15 15 13 12 11 7 7 8 8
11 13 16 9 2 7 7 6 11 14 13 12 17 15 20 23 25 27 24 31 31 31 34 36 34 32 32 31 30 29 29 27 23 23 24 21 21 16 17 16 17 17 15 12 10 9 8 8 10
13 14 11 8 18 17 8 5 6 6 11 15 13 18 21 22 24 24 23 29 31 34 35 34 34 38 37 28 30 31 29 33 29 25 25 24 22 20 18 19 19 16 14 13 12 10 10 10 9
8 9 3 7 8 15 15 13 8 13 13 12 15 19 19 21 23 23 22 30 33 33 31 32 33 33 31 34 34 32 28 31 34 28 26 26 25 24 22 21 18 15 14 14 13 14 12 12 12
21 20 18 11 12 6 10 13 6 14 14 11 14 11 14 18 21 21 21 27 29 30 30 34 35 35 38 36 32 32 32 39 32 31 33 26 25 23 21 19 18 16 15 13 14 14 13 14 13
Wind_Direction
139 151 155 201 201 82 83 100 115 132 124 67 89 104 94 46 41 121 142 164 159 145 139 137 140 143 138 134 137 136 134 145 151 150 150 139 135 124 112 108 90 86 84 79 69 60 48 41 36
146 164 212 261 66 104 79 107 136 116 114 108 90 101 59 76 77 121 138 158 159 153 152 144 150 143 142 144 145 140 140 145 150 153 149 139 137 132 119 95 90 86 81 69 56 44 35 29 26
129 178 295 55 41 62 105 143 123 116 136 118 108 57 63 91 118 136 145 149 153 156 159 154 148 141 145 150 148 142 141 141 148 152 147 142 136 134 112 102 96 90 73 61 47 39 28 18 12
155 149 109 80 77 74 102 146 136 131 98 72 114 85 87 118 140 146 145 147 149 152 154 155 145 141 143 144 148 147 144 141 147 146 144 143 140 121 117 111 97 75 58 51 33 25 10 0 358
102 158 117 91 64 67 123 149 149 130 107 115 130 112 107 77 126 138 145 149 149 148 151 150 148 146 146 144 147 154 151 147 150 149 147 151 141 127 122 109 73 41 32 30 15 5 356 344 346
127 327 94 74 79 97 121 152 136 105 128 122 113 117 120 134 142 146 149 149 149 149 152 152 156 156 151 150 154 162 167 159 159 156 156 154 153 151 137 98 14 15 5 354 357 350 348 343 340
225 150 92 120 110 136 136 158 146 128 139 129 133 120 128 160 154 152 151 151 151 151 154 156 157 156 159 158 156 161 168 170 170 167 162 164 172 180 177 312 333 334 327 331 333 347 352 3 6
135 252 137 162 167 126 146 146 144 145 106 130 149 162 167 169 157 151 150 153 154 159 164 163 161 159 159 161 163 162 167 165 165 169 177 184 198 212 256 288 315 318 317 323 325 349 351 5 22
166 184 184 180 171 145 152 159 148 125 144 181 171 156 150 157 155 151 153 159 166 169 171 170 169 170 172 170 173 172 175 176 175 184 200 207 220 233 252 270 314 296 307 322 334 344 354 350 353
209 223 196 193 179 159 164 170 150 154 164 165 124 127 143 156 161 160 167 172 177 177 179 179 179 179 180 183 180 187 193 196 197 206 211 221 232 243 259 272 312 322 311 331 321 328 332 6 17
175 246 192 195 172 158 158 169 161 155 189 189 171 156 156 163 170 173 177 180 181 182 183 186 185 186 185 190 189 195 200 201 208 218 219 227 237 245 259 273 282 300 327 322 308 319 330 337 334
230 223 207 149 167 161 167 157 177 182 186 179 167 161 163 170 177 179 181 182 185 190 194 196 196 195 198 200 200 201 203 210 219 226 228 233 237 246 255 261 265 274 291 285 274 308 310 320 319
222 251 217 181 169 175 157 170 175 200 215 164 155 164 170 179 183 188 190 191 190 195 198 201 200 201 203 206 211 213 218 225 229 233 237 238 241 254 259 266 264 282 288 270 284 295 305 310 312
154 357 148 171 160 158 163 164 167 176 145 152 161 171 174 183 188 190 192 195 198 198 200 200 203 205 207 210 216 219 223 229 234 236 237 242 246 249 257 264 274 278 284 283 293 292 301 304 310
137 104 101 136 153 150 145 154 212 162 159 159 167 176 180 189 189 195 196 200 202 205 205 205 205 207 211 215 219 224 232 234 236 240 245 246 253 262 266 264 279 275 269 281 287 292 285 293 300
126 151 170 169 174 157 184 211 193 170 166 171 174 180 187 193 197 200 202 206 205 206 208 209 208 210 213 216 218 224 232 237 245 251 254 255 258 250 251 257 267 273 266 269 277 271 287 291 296
189 203 202 174 196 162 198 214 187 177 182 181 184 185 191 195 205 206 207 208 207 208 207 208 208 211 213 220 223 231 241 240 255 255 256 253 259 255 249 264 267 269 256 275 253 259 288 301 306
186 200 205 181 181 190 199 193 163 187 190 191 192 194 197 200 207 207 213 214 214 213 213 212 211 213 217 220 225 230 240 244 245 254 260 257 254 253 259 260 258 236 249 200 236 262 286 296 306
198 206 196 177 166 181 221 245 206 193 207 201 202 202 203 210 209 211 213 216 217 218 217 216 214 218 215 214 218 227 233 241 247 251 253 253 251 245 248 246 221 215 199 217 243 275 292 299 314
197 215 203 158 160 191 203 236 234 205 214 211 206 206 211 214 210 215 218 216 215 218 218 216 218 221 220 217 218 219 224 242 247 252 255 246 244 239 234 219 198 197 212 221 241 235 281 294 314
201 204 190 189 163 104 184 237 231 225 218 221 223 219 216 217 211 212 214 215 215 216 216 218 221 224 224 219 215 219 228 234 241 240 236 228 227 222 211 212 211 223 208 212 209 242 245 296 290
210 213 203 173 173 222 201 258 221 221 215 220 226 220 219 216 217 214 211 214 215 217 216 217 223 224 223 221 213 213 218 227 234 225 219 213 214 206 212 218 221 215 199 211 246 247 207 213 271
217 177 192 191 204 200 208 242 256 199 220 221 222 223 221 217 214 216 213 214 215 216 214 215 220 223 220 219 214 213 221 229 225 217 217 217 214 210 212 214 222 206 209 236 256 223 212 224 244
145 118 90 136 188 221 213 215 238 199 219 228 219 220 220 216 215 217 216 213 215 215 214 212 214 223 222 221 219 217 218 217 216 215 217 217 208 211 218 215 220 221 227 236 226 216 215 219 224
197 171 177 197 199 225 225 216 242 232 229 229 224 214 215 214 214 214 208 208 210 208 209 209 211 217 218 218 218 219 219 215 218 216 214 208 205 209 218 219 224 227 233 235 216 213 211 213 216
193 199 206 207 210 219 167 218 237 232 248 245 245 229 215 214 212 214 208 205 206 206 207 207 209 215 215 216 217 219 220 215 216 217 211 209 209 211 217 227 230 224 227 219 213 218 225 229 230
182 216 222 231 58 226 196 241 274 254 247 235 229 213 213 212 211 211 209 209 207 203 206 206 207 213 216 216 214 216 217 215 215 219 220 213 211 206 215 222 214 213 214 214 218 226 234 241 242
202 175 195 218 223 234 209 231 228 229 243 237 219 214 222 211 209 211 208 205 204 208 208 207 207 210 215 214 215 215 215 221 219 223 225 212 210 211 212 210 209 212 216 224 237 239 242 240 242
184 192 208 235 231 231 236 233 213 233 244 241 235 227 223 209 207 205 204 203 204 209 208 206 206 209 210 213 214 213 211 216 227 220 217 228 204 212 210 210 211 213 221 231 235 242 248 246 250
230 218 211 219 201 227 250 227 189 226 244 246 245 240 231 212 207 204 202 202 206 208 208 209 209 208 212 213 211 214 212 221 216 218 216 211 228 205 209 216 218 225 228 234 242 247 250 250 249
Height
770 773 774 775 783 778 801 800 786 795 795 790 789 793 805 805 806 820 816 819 822 823 825 826 827 827 829 831 834 835 837 839 843 845 848 849 850 852 853 853 853 854 855 856 855 855 855 854 854
770 773 773 767 785 798 805 792 795 791 793 790 792 796 802 813 807 812 817 820 823 824 826 828 829 830 832 834 836 838 841 844 846 848 850 851 853 854 855 854 855 857 857 857 857 857 856 855 855
770 771 770 776 789 801 804 793 792 790 789 790 798 797 803 813 812 814 817 820 823 825 827 829 831 832 834 837 839 841 844 846 849 850 851 853 855 855 855 856 856 858 858 858 859 858 857 856 855
770 771 772 785 796 793 793 791 788 791 790 790 795 806 806 811 814 815 819 822 825 827 830 831 833 835 836 838 841 844 846 848 850 851 853 855 855 855 857 858 858 859 859 860 860 859 857 857 856
769 770 781 790 793 788 784 786 787 791 793 795 795 810 812 814 815 818 821 824 826 829 832 834 835 837 839 841 843 845 847 849 850 852 854 856 856 857 858 859 860 861 861 860 860 859 858 858 857
770 772 785 796 796 790 787 785 788 793 795 797 800 804 813 816 818 820 824 826 828 831 834 836 837 839 840 842 845 847 848 850 852 853 855 856 857 859 860 860 861 861 861 861 860 859 858 857 857
770 776 792 790 795 793 791 783 790 795 797 800 797 808 814 816 818 822 825 828 830 832 835 837 839 840 842 844 847 849 850 851 852 853 855 856 858 859 860 860 861 860 861 860 860 859 858 857 856
765 770 786 786 791 793 785 786 787 791 799 796 797 811 815 813 818 823 826 829 831 834 836 838 840 842 844 847 848 849 851 852 854 855 856 858 859 860 860 860 860 861 861 861 860 859 858 858 857
763 778 787 787 785 782 780 788 787 787 794 796 797 800 802 812 818 822 826 829 832 834 836 838 840 842 845 847 849 850 851 853 854 855 857 858 860 860 860 860 859 859 859 860 859 859 859 858 857
764 776 775 763 763 770 776 782 787 794 796 798 800 802 807 813 817 819 823 827 830 833 835 838 840 843 845 847 849 850 852 854 854 855 857 858 858 859 859 858 858 858 858 858 858 859 858 858 858
761 770 760 760 761 762 772 780 781 792 800 794 800 802 806 811 815 818 822 825 828 832 835 837 840 843 845 846 849 850 851 852 854 855 856 856 858 858 858 858 858 857 857 859 857 857 857 856 856
767 756 755 757 759 762 772 772 784 786 786 785 793 798 806 810 813 816 821 825 828 831 834 836 838 841 844 845 847 849 850 851 852 854 854 855 856 856 856 857 856 856 856 856 856 856 855 855 855
761 755 753 752 757 760 765 774 781 786 783 785 792 800 804 809 812 816 820 824 826 829 832 834 836 839 842 843 845 847 848 849 850 851 852 853 854 855 855 855 855 855 854 854 855 855 854 854 854
751 754 756 755 761 765 771 779 779 783 784 789 792 798 803 808 811 816 820 822 825 827 829 832 834 837 840 841 842 844 846 847 848 849 849 850 851 853 854 854 854 853 852 853 853 853 853 853 853
751 763 762 763 764 770 769 790 784 779 785 791 793 798 802 805 810 812 816 819 822 824 827 829 832 835 836 838 840 842 844 845 846 846 847 848 847 849 850 852 852 851 851 851 851 851 851 851 851
758 760 776 768 765 769 766 783 777 778 782 789 793 796 800 803 806 810 813 816 819 823 824 827 830 832 834 836 838 840 841 842 842 844 845 845 844 847 848 849 849 849 848 849 849 850 850 850 850
764 771 774 778 761 768 772 777 772 774 780 787 790 791 795 800 803 806 809 812 815 818 821 823 826 829 831 833 835 837 839 840 841 840 840 843 843 844 844 845 846 845 846 847 848 849 849 849 848
770 772 769 769 767 767 775 778 776 777 778 782 786 789 792 794 795 801 805 809 812 815 818 821 824 826 828 831 833 835 836 836 838 838 838 840 842 843 842 843 842 843 845 846 847 848 849 849 848
744 756 761 763 759 770 774 775 778 777 780 780 782 786 788 789 791 796 801 805 809 812 814 816 819 821 825 827 830 831 833 834 835 836 836 838 838 839 840 841 841 842 844 846 847 847 848 848 847
749 755 759 761 760 764 775 777 773 773 775 774 777 780 782 784 788 792 796 799 803 806 808 812 814 817 820 824 827 829 830 831 832 834 834 835 837 837 838 840 841 842 844 844 845 846 847 847 847
751 753 759 758 764 766 771 777 774 769 769 771 771 771 774 776 780 784 789 793 796 800 803 807 809 812 816 820 823 825 827 828 830 831 832 833 835 836 837 839 840 841 842 843 843 844 845 845 846
752 740 744 757 765 782 766 787 768 762 768 768 766 766 766 769 773 776 781 786 789 793 797 801 804 807 811 815 818 821 824 826 827 829 830 832 833 835 837 838 840 841 842 842 842 842 843 843 843
741 735 743 748 757 772 781 788 751 763 767 755 753 754 755 757 761 766 771 777 782 787 791 795 799 803 806 809 813 817 820 823 825 826 828 830 831 833 835 837 838 840 841 841 841 842 842 842 842
734 745 758 759 761 790 764 775 756 762 748 735 735 743 744 748 751 757 764 771 776 781 785 788 792 795 799 804 808 811 814 818 821 823 825 828 830 831 833 835 836 838 839 840 841 841 841 841 842
733 744 778 788 791 784 755 775 749 727 723 719 720 727 732 738 744 748 754 760 765 771 775 780 784 788 793 797 801 804 808 812 815 817 820 824 826 827 829 831 834 836 838 839 840 840 841 840 841
735 734 756 789 785 774 773 775 743 713 705 713 713 716 725 730 734 739 743 749 756 762 767 772 776 782 786 790 794 799 803 807 809 811 814 817 820 823 826 829 832 834 837 837 838 839 839 839 839
734 744 719 748 770 762 749 748 729 712 711 709 709 713 715 718 722 726 735 741 746 752 755 760 767 773 778 783 789 793 798 801 804 807 809 812 815 819 822 825 827 830 832 834 835 835 835 836 836
715 713 748 746 767 778 758 756 736 719 709 700 706 705 701 704 712 717 722 730 736 741 745 753 758 763 769 778 782 786 791 795 799 803 806 807 812 815 817 820 824 827 830 832 834 834 834 834 834
723 728 730 720 733 746 759 740 710 705 696 693 691 691 690 695 701 704 711 720 726 732 740 745 751 757 764 768 772 778 783 790 795 795 801 810 803 810 813 817 821 825 827 829 830 832 833 832 831
695 707 711 725 745 737 731 727 692 692 685 684 681 681 684 688 691 697 706 714 721 726 733 737 741 747 751 757 765 770 776 780 785 790 792 801 813 806 813 816 819 821 824 827 828 830 831 830 827